Vorticity
nan nan nan nan nan nan nan nan nan nan nan nan nan nan nan nan nan nan nan nan nan nan nan nan nan nan nan nan nan nan nan nan nan nan nan nan nan nan
nan 9 12 11 12 12 11 11 11 11 8 7 10 7 10 9 4 9 4 -2 4 11 12 12 9 10 11 11 12 13 13 15 13 12 17 13 15 nan
nan 10 9 13 14 12 11 11 12 12 12 9 6 9 9 6 9 9 5 3 -3 1 11 10 9 9 9 10 10 10 11 12 12 11 11 11 10 nan
nan 9 10 11 12 13 11 10 12 15 14 9 8 9 8 7 7 8 10 8 0 -1 3 7 9 9 9 9 10 11 9 9 10 11 10 11 10 nan
nan 8 8 11 13 14 13 11 12 13 13 10 10 9 7 9 9 6 7 9 5 -3 3 4 2 7 8 9 7 12 10 10 8 8 9 10 9 nan
nan 8 8 8 11 16 13 13 13 11 12 11 10 10 10 9 9 7 7 7 8 1 3 1 0 -1 1 5 8 7 9 11 10 8 8 9 9 nan
nan 7 10 6 7 15 15 15 18 15 13 10 9 9 10 9 10 12 11 6 5 8 4 5 4 1 -2 1 9 4 8 9 11 10 8 8 9 nan
nan 8 6 11 7 2 8 13 19 19 17 12 11 9 10 9 7 12 14 13 8 8 7 8 8 8 7 1 4 8 8 8 11 12 10 7 7 nan
nan 10 10 8 8 8 5 3 6 11 14 15 11 10 10 11 11 10 11 13 11 9 11 11 10 10 6 -0 2 8 8 8 8 10 14 10 6 nan
nan 11 9 9 11 11 9 7 5 4 8 12 10 11 13 16 18 15 13 8 5 5 14 11 8 8 8 4 -2 4 6 7 8 9 11 16 12 nan
nan 9 12 9 12 16 11 7 8 9 7 7 7 6 6 11 24 21 12 13 7 6 10 9 11 9 6 7 1 -1 3 6 6 7 7 13 17 nan
nan 4 6 10 10 14 14 10 8 6 8 8 6 5 4 2 9 16 16 14 11 10 6 10 11 15 11 4 7 5 1 1 6 5 6 8 17 nan
nan 6 4 7 10 11 13 11 8 9 10 9 9 8 8 8 6 8 12 12 14 10 10 12 11 13 13 9 7 9 9 7 6 2 1 6 11 nan
nan 11 7 3 4 10 10 9 12 13 10 10 9 9 9 9 10 11 10 10 10 8 10 15 13 9 12 12 7 9 8 10 8 10 6 3 8 nan
nan 11 10 7 6 4 4 9 12 12 10 10 9 10 10 9 9 11 14 11 4 5 9 12 11 13 12 10 10 9 12 10 8 10 10 9 8 nan
nan 4 5 9 13 8 6 8 10 9 10 10 10 9 10 9 10 10 10 10 9 8 9 9 9 13 12 10 10 9 11 9 9 9 11 11 10 nan
nan 10 9 8 9 10 9 8 9 10 10 10 10 10 10 11 9 10 11 11 10 9 8 8 14 11 5 10 11 9 10 9 9 9 12 10 10 nan
nan 10 10 10 9 10 10 10 9 9 9 11 10 10 10 10 9 11 11 10 9 10 9 9 12 15 11 2 7 13 9 9 9 10 11 11 9 nan
nan 10 9 10 9 9 10 10 10 9 11 10 10 10 10 10 11 10 10 11 10 10 10 9 10 12 10 12 8 6 10 9 9 10 9 10 9 nan
nan 11 10 9 10 10 10 10 10 10 10 9 10 10 11 10 11 10 9 9 9 11 9 10 9 9 9 10 8 11 8 8 8 9 10 10 7 nan
nan 10 10 11 11 10 9 9 9 9 10 11 10 10 10 10 10 10 11 12 10 8 10 10 14 11 5 8 10 8 14 12 -1 8 8 7 10 nan
nan 11 10 10 10 11 9 10 11 9 8 9 9 10 10 11 10 10 10 9 12 11 10 10 9 12 12 10 10 9 10 5 13 16 13 7 9 nan
nan nan nan nan nan nan nan nan nan nan nan nan nan nan nan nan nan nan nan nan nan nan nan nan nan nan nan nan nan nan nan nan nan nan nan nan nan nan
CAPE
6 6 11 21 27 16 21 23 43 21 14 20 9 9 21 25 23 14 11 25 18 28 25 31 26 21 16 10 5 7 5 1 2 2 3 1 4 6
2 6 9 16 19 21 18 17 21 31 22 13 14 12 5 24 20 19 10 12 32 26 28 30 22 21 20 19 16 13 11 11 11 9 12 14 13 9
1 5 5 7 19 13 17 13 14 17 22 22 23 15 11 6 7 17 10 12 9 27 25 28 36 34 26 23 17 18 19 17 16 17 22 26 21 17
2 2 3 4 13 22 19 14 14 14 19 8 12 19 14 21 8 4 11 21 13 31 22 25 22 17 23 27 24 23 16 17 21 19 20 23 24 19
2 2 4 4 7 18 19 22 12 15 18 10 10 9 20 9 16 5 4 3 17 6 10 17 20 26 20 17 24 21 23 21 10 8 7 8 10 15
0 1 4 3 7 9 14 11 22 12 18 14 13 12 11 9 9 6 3 3 3 6 0 3 9 11 22 18 18 11 16 18 13 7 4 3 5 6
0 0 0 1 0 9 8 12 7 14 7 7 8 6 10 13 10 9 5 3 2 2 1 0 0 3 8 10 11 20 8 10 9 11 6 3 2 3
0 0 0 0 0 0 2 3 6 4 10 2 3 7 7 7 18 17 15 12 6 4 9 4 0 0 5 8 9 8 8 8 6 3 5 6 2 1
5 1 0 0 0 0 0 0 2 3 1 0 2 5 6 7 6 3 8 2 4 2 4 14 4 3 0 3 6 5 5 5 4 4 4 4 3 1
7 5 3 1 0 0 0 2 3 3 7 10 8 9 9 8 2 0 0 0 0 1 1 8 14 20 8 7 6 5 4 4 3 2 2 1 3 1
5 4 3 2 0 0 0 0 2 5 4 2 2 2 1 1 1 1 1 0 2 2 3 2 18 17 20 25 22 8 4 5 5 3 2 0 1 6
9 6 0 0 0 0 1 2 2 3 6 6 7 6 6 9 2 11 7 2 1 0 1 5 20 12 20 14 28 33 34 7 6 6 4 3 2 17
12 11 5 0 0 0 0 1 1 6 6 8 11 13 13 12 14 15 9 6 3 3 5 6 8 15 15 15 17 26 35 25 40 32 10 6 7 5
10 10 3 0 0 0 0 0 0 2 9 8 8 7 6 6 8 5 2 1 3 2 1 4 9 7 12 9 9 19 24 30 32 23 37 17 7 5
6 1 0 0 0 0 0 0 0 9 9 8 7 8 3 0 1 2 1 0 0 0 6 4 5 4 11 10 7 10 9 18 31 23 28 29 24 33
0 0 0 0 0 0 1 2 4 3 5 5 5 3 1 0 0 0 0 0 0 1 0 0 0 1 2 5 2 3 3 3 14 18 11 23 27 33
2 4 5 1 1 1 1 0 0 0 1 2 2 2 1 0 0 0 0 0 0 0 0 0 2 0 0 0 1 1 2 2 5 4 1 3 14 23
0 3 4 4 1 0 1 1 0 0 0 0 1 0 1 0 0 1 1 1 0 0 0 0 0 1 0 0 0 1 2 1 1 4 1 3 2 12
3 3 5 5 0 0 0 0 0 0 0 0 1 1 3 1 2 1 2 2 1 0 0 0 0 0 3 4 1 0 0 1 2 1 1 2 3 8
1 3 3 2 0 0 0 0 0 0 0 0 2 3 3 3 4 2 2 1 0 0 0 0 0 0 0 2 4 5 0 0 2 2 1 0 0 0
0 0 0 0 0 0 1 1 1 1 1 2 3 1 4 4 2 1 4 0 0 0 0 0 0 0 0 0 3 3 2 0 0 0 1 2 3 1
0 0 0 0 0 0 2 2 3 2 1 0 2 4 5 5 4 2 4 4 2 1 0 0 0 0 0 1 1 0 3 2 0 0 0 1 4 3
4 0 0 1 1 0 0 1 0 1 0 0 1 2 2 3 2 4 4 3 2 1 1 0 0 1 1 2 0 3 2 6 3 3 2 0 0 2